EW7912 Weather Reports


Display with metric or nautical units.
time (UTC)temp
F
wind
direction
speed
MPH
gust
MPH
rain 1hr
in
rain 24hr
in
rain mn
in
humidity
%
barometer
mb
20210924061729 55 74 0.0 0.0 0.00 0.00 0.00 86 1017.5
20210924061221 55 74 0.0 0.0 0.00 0.00 0.00 86 1017.5
20210924060718 55 74 0.0 0.0 0.00 0.00 0.00 86 1017.6
20210924060216 55 74 0.0 0.0 0.00 0.00 0.00 85 1017.5
20210924055715 55 74 0.0 1.0 0.00 0.00 0.00 85 1017.6
20210924055214 55 74 0.0 1.0 0.00 0.00 0.00 84 1017.7
20210924054714 55 74 1.0 4.0 0.00 0.00 0.00 84 1017.6
20210924054214 55 74 1.0 4.0 0.00 0.00 0.00 84 1017.8
20210924053716 56 87 0.0 0.0 0.00 0.00 0.00 84 1017.8
20210924053214 56 87 0.0 0.0 0.00 0.00 0.00 83 1017.6
20210924052714 56 87 0.0 0.0 0.00 0.00 0.00 83 1017.8
20210924052215 56 87 0.0 0.0 0.00 0.00 0.00 83 1017.7
20210924051715 56 87 0.0 0.0 0.00 0.00 0.00 83 1017.7
20210924051215 56 87 0.0 0.0 0.00 0.00 0.00 82 1017.8
20210924050715 56 87 0.0 0.0 0.00 0.00 0.00 82 1017.6
20210924050214 56 87 0.0 0.0 0.00 0.00 0.00 82 1017.7
20210924045715 56 87 0.0 0.0 0.00 0.00 0.00 82 1017.8
20210924045215 56 87 0.0 0.0 0.00 0.00 0.00 82 1017.8
20210924044714 57 87 0.0 0.0 0.00 0.00 0.00 81 1017.7
20210924044215 57 87 0.0 2.0 0.00 0.00 0.00 80 1017.8
20210924043715 57 87 0.0 2.0 0.00 0.00 0.00 80 1017.9
20210924043214 57 87 0.0 0.0 0.00 0.00 0.00 79 1017.8
20210924042714 58 87 0.0 0.0 0.00 0.00 0.00 78 1017.8
20210924042214 58 87 0.0 0.0 0.00 0.00 0.00 77 1017.8
20210924041715 58 87 0.0 0.0 0.00 0.00 0.00 76 1017.8
20210924041214 59 87 0.0 0.0 0.00 0.00 0.00 75 1017.8
20210924040714 59 87 0.0 0.0 0.00 0.00 0.00 74 1017.8
20210924040214 59 87 0.0 0.0 0.00 0.00 0.00 73 1017.8
20210924035714 60 87 0.0 0.0 0.00 0.00 0.00 73 1017.8
20210924035215 59 87 0.0 2.0 0.00 0.00 0.00 72 1017.9
20210924034715 60 87 0.0 2.0 0.00 0.00 0.00 71 1017.9
20210924034214 59 87 0.0 1.0 0.00 0.00 0.00 72 1017.8
20210924033714 59 87 0.0 1.0 0.00 0.00 0.00 74 1017.9
20210924033214 59 87 0.0 1.0 0.00 0.00 0.00 74 1017.8
20210924032710 60 87 0.0 1.0 0.00 0.00 0.00 72 1017.8
20210924032210 60 87 0.0 0.0 0.00 0.00 0.00 72 1017.8
20210924031710 59 87 0.0 1.0 0.00 0.00 0.00 73 1017.8
20210924031204 60 87 0.0 1.0 0.00 0.00 0.00 73 1017.8
20210924030657 60 87 1.0 2.0 0.00 0.00 0.00 72 1017.7
20210924030151 60 87 1.0 3.0 0.00 0.00 0.00 71 1017.7
20210924025646 61 87 0.0 3.0 0.00 0.00 0.00 70 1017.6
20210924025140 61 68 0.0 0.0 0.00 0.00 0.00 68 1017.4
20210924024633 61 68 0.0 0.0 0.00 0.00 0.00 68 1017.4
20210924024129 60 68 0.0 0.0 0.00 0.00 0.00 69 1017.4
20210924023622 60 68 0.0 0.0 0.00 0.00 0.00 72 1017.3
20210924023117 60 68 0.0 0.0 0.00 0.00 0.00 71 1017.3
20210924022611 61 68 0.0 0.0 0.00 0.00 0.00 71 1017.2
20210924022103 61 68 0.0 0.0 0.00 0.00 0.00 70 1017.2
20210924021558 62 68 0.0 0.0 0.00 0.00 0.00 69 1017.0
20210924021052 63 68 0.0 0.0 0.00 0.00 0.00 67 1017.1
20210924020546 63 68 0.0 0.0 0.00 0.00 0.00 65 1017.0
20210924020053 63 68 0.0 0.0 0.00 0.00 0.00 66 1017.0
20210924015534 64 68 0.0 0.0 0.00 0.00 0.00 66 1016.9
20210924015028 64 68 0.0 0.0 0.00 0.00 0.00 65 1017.0
20210924014523 64 68 0.0 0.0 0.00 0.00 0.00 65 1016.9
20210924014016 65 68 0.0 0.0 0.00 0.00 0.00 65 1016.9
20210924013509 65 68 0.0 0.0 0.00 0.00 0.00 64 1016.8
20210924013005 65 68 0.0 0.0 0.00 0.00 0.00 63 1016.8
20210924012458 65 68 0.0 0.0 0.00 0.00 0.00 63 1016.7
20210924011952 65 68 0.0 0.0 0.00 0.00 0.00 62 1016.6
20210924011445 66 68 0.0 0.0 0.00 0.00 0.00 62 1016.6
20210924010940 66 68 0.0 0.0 0.00 0.00 0.00 62 1016.5
20210924010433 67 68 0.0 0.0 0.00 0.00 0.00 61 1016.5
20210924005927 67 68 0.0 0.0 0.00 0.00 0.00 61 1016.5
20210924005424 67 68 0.0 0.0 0.00 0.00 0.00 61 1016.5
20210924004915 68 68 0.0 0.0 0.00 0.00 0.00 58 1016.4
20210924004411 68 68 0.0 0.0 0.00 0.00 0.00 57 1016.4
20210924003904 69 68 0.0 0.0 0.00 0.00 0.00 55 1016.5
20210924003357 69 68 0.0 0.0 0.00 0.00 0.00 55 1016.5
20210924002856 70 68 0.0 0.0 0.00 0.00 0.00 53 1016.5
20210924002356 71 68 0.0 0.0 0.00 0.00 0.00 53 1016.4
20210924001854 71 68 0.0 0.0 0.00 0.00 0.00 51 1016.4
20210924001354 72 68 0.0 0.0 0.00 0.00 0.00 51 1016.5
20210924000859 72 68 0.0 0.0 0.00 0.00 0.00 49 1016.5
20210924000353 73 68 0.0 0.0 0.00 0.00 0.00 49 1016.5
20210923235852 74 68 0.0 1.0 0.00 0.00 0.00 48 1016.5
20210923235352 75 68 0.0 1.0 0.00 0.00 0.00 47 1016.5
20210923234850 75 67 0.0 0.0 0.00 0.00 0.00 46 1016.5
20210923234350 76 67 0.0 2.0 0.00 0.00 0.00 45 1016.5
20210923233850 76 67 0.0 2.0 0.00 0.00 0.00 46 1016.6
20210923233348 77 67 1.0 3.0 0.00 0.00 0.00 43 1016.5
20210923232848 77 67 1.0 3.0 0.00 0.00 0.00 44 1016.5
20210923232348 78 67 1.0 2.0 0.00 0.00 0.00 44 1016.6
20210923231846 78 67 1.0 3.0 0.00 0.00 0.00 43 1016.5
20210923231346 79 68 1.0 3.0 0.00 0.00 0.00 36 1016.5
20210923230846 80 285 1.0 2.0 0.00 0.00 0.00 38 1016.5
20210923230344 80 285 1.0 3.0 0.00 0.00 0.00 36 1016.5
20210923225844 81 285 1.0 3.0 0.00 0.00 0.00 36 1016.6
20210923225338 81 286 1.0 3.0 0.00 0.00 0.00 27 1016.5
20210923224831 81 287 1.0 3.0 0.00 0.00 0.00 28 1016.6
20210923224327 81 269 1.0 4.0 0.00 0.00 0.00 30 1016.5
20210923223819 81 321 2.0 4.0 0.00 0.00 0.00 28 1016.6
20210923223316 80 304 2.0 6.0 0.00 0.00 0.00 32 1016.6
20210923222816 81 319 2.0 6.0 0.00 0.00 0.00 32 1016.7
20210923222316 81 44 1.0 4.0 0.00 0.00 0.00 31 1016.7
20210923221816 81 71 2.0 4.0 0.00 0.00 0.00 28 1016.7
20210923221316 81 326 2.0 5.0 0.00 0.00 0.00 29 1016.7
20210923220814 81 342 3.0 5.0 0.00 0.00 0.00 30 1016.7
20210923220312 81 5 3.0 5.0 0.00 0.00 0.00 31 1016.6
20210923215810 81 35 3.0 7.0 0.00 0.00 0.00 33 1016.7
20210923215312 81 24 3.0 7.0 0.00 0.00 0.00 33 1016.7
20210923214810 81 51 3.0 8.0 0.00 0.00 0.00 32 1016.6
20210923214308 81 294 4.0 8.0 0.00 0.00 0.00 32 1016.7
20210923213808 81 321 3.0 8.0 0.00 0.00 0.00 31 1016.8
20210923213308 81 355 2.0 6.0 0.00 0.00 0.00 31 1016.8
20210923212808 81 329 3.0 6.0 0.00 0.00 0.00 30 1016.9
20210923212309 81 346 3.0 6.0 0.00 0.00 0.00 32 1016.9
20210923211806 81 313 3.0 6.0 0.00 0.00 0.00 30 1016.9
20210923211306 81 355 2.0 6.0 0.00 0.00 0.00 33 1016.9
20210923210806 81 236 2.0 6.0 0.00 0.00 0.00 29 1016.8
20210923210305 81 88 2.0 7.0 0.00 0.00 0.00 29 1016.9
20210923205759 81 79 3.0 7.0 0.00 0.00 0.00 29 1017.0
20210923205256 80 78 4.0 8.0 0.00 0.00 0.00 30 1016.9
20210923204748 80 321 3.0 8.0 0.00 0.00 0.00 32 1016.9
20210923204245 80 327 3.0 6.0 0.00 0.00 0.00 30 1017.0
20210923203746 81 266 3.0 8.0 0.00 0.00 0.00 30 1017.1
20210923203246 81 332 3.0 8.0 0.00 0.00 0.00 34 1017.1
20210923202746 80 311 3.0 8.0 0.00 0.00 0.00 31 1017.2
20210923202248 81 355 2.0 4.0 0.00 0.00 0.00 28 1017.2
20210923201746 81 331 2.0 4.0 0.00 0.00 0.00 33 1017.2
20210923201246 81 81 2.0 5.0 0.00 0.00 0.00 26 1017.3
20210923200744 80 80 3.0 8.0 0.00 0.00 0.00 27 1017.4
20210923200244 80 42 3.0 8.0 0.00 0.00 0.00 29 1017.4
20210923195744 80 72 4.0 8.0 0.00 0.00 0.00 29 1017.5
20210923195245 80 35 4.0 8.0 0.00 0.00 0.00 32 1017.7
20210923194744 81 303 2.0 7.0 0.00 0.00 0.00 27 1017.7
20210923194241 80 35 2.0 8.0 0.00 0.00 0.00 29 1017.8
20210923193742 80 306 3.0 8.0 0.00 0.00 0.00 30 1017.8
20210923193241 80 348 2.0 8.0 0.00 0.00 0.00 32 1017.8
20210923192741 80 298 2.0 7.0 0.00 0.00 0.00 33 1018.0
20210923192235 80 5 3.0 8.0 0.00 0.00 0.00 31 1018.0
20210923191730 80 355 3.0 8.0 0.00 0.00 0.00 31 1018.2
20210923191226 80 0 3.0 8.0 0.00 0.00 0.00 32 1018.4
20210923190726 80 289 4.0 9.0 0.00 0.00 0.00 34 1018.4
20210923190227 80 277 4.0 9.0 0.00 0.00 0.00 33 1018.4
20210923185725 80 339 3.0 9.0 0.00 0.00 0.00 33 1018.5
20210923185227 80 325 2.0 4.0 0.00 0.00 0.00 30 1018.5
20210923184725 80 280 2.0 7.0 0.00 0.00 0.00 31 1018.6
20210923184225 79 300 2.0 7.0 0.00 0.00 0.00 37 1018.7
20210923183725 79 90 2.0 3.0 0.00 0.00 0.00 32 1019.3
20210923183225 79 5 3.0 9.0 0.00 0.00 0.00 37 1019.0
20210923182725 79 355 3.0 9.0 0.00 0.00 0.00 33 1019.1
20210923182226 79 292 2.0 8.0 0.00 0.00 0.00 37 1019.1
20210923181726 79 315 2.0 6.0 0.00 0.00 0.00 31 1019.2
20210923181222 79 213 2.0 6.0 0.00 0.00 0.00 31 1019.2
20210923180722 79 114 2.0 5.0 0.00 0.00 0.00 31 1019.4
20210923180222 79 325 3.0 8.0 0.00 0.00 0.00 36 1019.4
20210923175722 78 226 3.0 8.0 0.00 0.00 0.00 33 1019.4
20210923175224 78 292 3.0 5.0 0.00 0.00 0.00 34 1019.4
20210923174721 79 246 2.0 5.0 0.00 0.00 0.00 33 1019.5
20210923174223 79 312 2.0 5.0 0.00 0.00 0.00 34 1019.6
20210923173722 78 146 2.0 6.0 0.00 0.00 0.00 34 1019.6
20210923173219 78 245 3.0 7.0 0.00 0.00 0.00 36 1019.8
20210923172717 78 269 3.0 7.0 0.00 0.00 0.00 39 1019.8
20210923172219 78 317 3.0 7.0 0.00 0.00 0.00 36 1019.9
20210923171717 78 240 2.0 4.0 0.00 0.00 0.00 34 1020.0
20210923171218 78 59 2.0 4.0 0.00 0.00 0.00 38 1020.2
20210923170717 77 98 3.0 5.0 0.00 0.00 0.00 35 1020.3
20210923170219 77 40 3.0 6.0 0.00 0.00 0.00 37 1020.3
20210923165717 77 298 3.0 6.0 0.00 0.00 0.00 37 1020.5
20210923165219 78 296 2.0 6.0 0.00 0.00 0.00 43 1020.4
20210923164718 78 59 2.0 5.0 0.00 0.00 0.00 33 1020.5
20210923164219 77 162 2.0 5.0 0.00 0.00 0.00 31 1020.5
20210923163717 77 171 2.0 5.0 0.00 0.00 0.00 38 1020.4
20210923163219 76 270 2.0 4.0 0.00 0.00 0.00 38 1020.5
20210923162715 76 53 2.0 4.0 0.00 0.00 0.00 40 1020.5
20210923162215 76 109 2.0 4.0 0.00 0.00 0.00 41 1020.6
20210923161715 76 346 1.0 4.0 0.00 0.00 0.00 44 1020.6
20210923161216 75 333 0.0 4.0 0.00 0.00 0.00 50 1020.6
20210923160714 75 313 1.0 2.0 0.00 0.00 0.00 50 1020.6
20210923160208 74 76 2.0 4.0 0.00 0.00 0.00 48 1020.7
20210923155702 74 76 2.0 4.0 0.00 0.00 0.00 51 1020.7
20210923155156 73 38 2.0 4.0 0.00 0.00 0.00 54 1020.8
20210923154650 73 5 1.0 4.0 0.00 0.00 0.00 58 1020.8
20210923154145 73 24 1.0 4.0 0.00 0.00 0.00 57 1020.6
20210923153639 72 42 1.0 3.0 0.00 0.00 0.00 59 1020.6
20210923153133 71 59 2.0 3.0 0.00 0.00 0.00 58 1020.6
20210923152630 71 42 2.0 3.0 0.00 0.00 0.00 63 1020.5
20210923152127 70 42 2.0 3.0 0.00 0.00 0.00 63 1020.6
20210923151627 69 60 1.0 3.0 0.00 0.00 0.00 63 1020.6
20210923151127 68 61 1.0 4.0 0.00 0.00 0.00 67 1020.6
20210923150625 67 61 2.0 4.0 0.00 0.00 0.00 65 1020.5
20210923150125 67 72 1.0 3.0 0.00 0.00 0.00 66 1020.4
20210923145625 66 72 1.0 3.0 0.00 0.00 0.00 67 1020.5
20210923145125 66 72 1.0 3.0 0.00 0.00 0.00 68 1020.4
20210923144625 65 72 1.0 3.0 0.00 0.00 0.00 68 1020.4
20210923144125 65 72 1.0 3.0 0.00 0.00 0.00 69 1020.4
20210923143624 64 88 1.0 3.0 0.00 0.00 0.00 70 1020.3
20210923143123 63 86 1.0 3.0 0.00 0.00 0.00 72 1020.4
20210923142623 62 93 1.0 3.0 0.00 0.00 0.00 73 1020.3
20210923142124 61 100 0.0 3.0 0.00 0.00 0.00 73 1020.3
20210923141623 61 84 0.0 0.0 0.00 0.00 0.00 73 1020.3
20210923141121 61 93 0.0 0.0 0.00 0.00 0.00 74 1020.3
20210923140620 60 5 0.0 0.0 0.00 0.00 0.00 75 1020.3
20210923140114 59 5 0.0 0.0 0.00 0.00 0.00 76 1020.3
20210923135611 58 5 0.0 0.0 0.00 0.00 0.00 81 1020.4
20210923135103 58 5 0.0 0.0 0.00 0.00 0.00 81 1020.3
20210923134557 56 5 0.0 0.0 0.00 0.00 0.00 85 1020.3
20210923134050 55 5 0.0 0.0 0.00 0.00 0.00 87 1020.4
20210923133545 54 5 0.0 0.0 0.00 0.00 0.00 88 1020.3
20210923133043 54 5 0.0 0.0 0.00 0.00 0.00 89 1020.3
20210923132533 53 5 0.0 0.0 0.00 0.00 0.00 89 1020.2
20210923132026 52 5 0.0 0.0 0.00 0.00 0.00 89 1020.2
20210923131520 52 5 0.0 0.0 0.00 0.00 0.00 89 1020.2
20210923131015 51 5 0.0 0.0 0.00 0.00 0.00 89 1020.1
20210923130508 51 5 0.0 0.0 0.00 0.00 0.00 89 1020.1
20210923130003 51 5 0.0 0.0 0.00 0.00 0.00 89 1020.1
20210923125457 50 5 0.0 0.0 0.00 0.00 0.00 90 1020.1
20210923124950 50 5 0.0 0.0 0.00 0.00 0.00 90 1020.1
20210923124446 50 5 0.0 0.0 0.00 0.00 0.00 89 1020.0
20210923123938 50 5 0.0 0.0 0.00 0.00 0.00 89 1020.1
20210923123434 50 5 0.0 0.0 0.00 0.00 0.00 89 1020.1
20210923122926 50 5 0.0 0.0 0.00 0.00 0.00 88 1020.1
20210923122420 50 5 0.0 0.0 0.00 0.00 0.00 88 1020.0
20210923121915 50 5 0.0 0.0 0.00 0.00 0.00 88 1020.1
20210923121414 50 5 0.0 0.0 0.00 0.00 0.00 88 1020.0
20210923120902 50 5 0.0 0.0 0.00 0.00 0.00 88 1020.0
20210923120357 50 5 0.0 0.0 0.00 0.00 0.00 88 1020.0
20210923115851 51 5 0.0 0.0 0.00 0.00 0.00 88 1020.0
20210923115345 51 5 0.0 0.0 0.00 0.00 0.00 88 1020.0
20210923114839 51 5 0.0 0.0 0.00 0.00 0.00 88 1020.0
20210923114333 51 5 0.0 0.0 0.00 0.00 0.00 88 1020.0
20210923113826 51 5 0.0 0.0 0.00 0.00 0.00 88 1020.1
20210923113320 51 5 0.0 0.0 0.00 0.00 0.00 88 1020.0
20210923112814 51 5 0.0 0.0 0.00 0.00 0.00 88 1020.1
20210923112313 51 5 0.0 0.0 0.00 0.00 0.00 88 1020.1
20210923111809 51 5 0.0 0.0 0.00 0.00 0.00 88 1020.0
20210923111307 51 5 0.0 0.0 0.00 0.00 0.00 88 1020.1
20210923110806 51 5 0.0 0.0 0.00 0.00 0.00 87 1020.0
20210923110307 51 5 0.0 0.0 0.00 0.00 0.00 87 1020.0
20210923105804 51 5 0.0 0.0 0.00 0.00 0.00 87 1020.1
20210923105305 52 5 0.0 0.0 0.00 0.00 0.00 87 1020.0
20210923104804 52 5 0.0 0.0 0.00 0.00 0.00 87 1020.0
20210923104304 52 5 0.0 0.0 0.00 0.00 0.00 87 1020.1
20210923103801 52 5 0.0 0.0 0.00 0.00 0.00 86 1020.0
20210923103259 52 5 0.0 0.0 0.00 0.00 0.00 86 1020.0
20210923102757 52 5 0.0 0.0 0.00 0.00 0.00 85 1020.0
20210923102255 52 5 0.0 0.0 0.00 0.00 0.00 85 1020.0
20210923101753 52 5 0.0 0.0 0.00 0.00 0.00 85 1020.0
20210923101251 52 5 0.0 0.0 0.00 0.00 0.00 85 1020.0
20210923100755 52 5 0.0 0.0 0.00 0.00 0.00 83 1020.0
20210923100252 52 5 0.0 0.0 0.00 0.00 0.00 83 1020.0
20210923095749 52 5 0.0 0.0 0.00 0.00 0.00 83 1020.0
20210923095247 52 5 0.0 0.0 0.00 0.00 0.00 83 1019.9
20210923094745 52 5 0.0 0.0 0.00 0.00 0.00 82 1020.0
20210923094243 52 5 0.0 0.0 0.00 0.00 0.00 82 1020.0
20210923093744 52 5 0.0 0.0 0.00 0.00 0.00 83 1020.0
20210923093239 52 5 0.0 0.0 0.00 0.00 0.00 82 1020.0
20210923092732 52 5 0.0 0.0 0.00 0.00 0.00 82 1020.0
20210923092227 52 5 0.0 0.0 0.00 0.00 0.00 82 1019.9
20210923091721 52 5 0.0 0.0 0.00 0.00 0.00 81 1019.9
20210923091213 52 5 0.0 0.0 0.00 0.00 0.00 81 1020.0
20210923090708 52 5 0.0 0.0 0.00 0.00 0.00 81 1019.9
20210923090202 52 5 0.0 0.0 0.00 0.00 0.00 81 1020.0
20210923085656 52 5 0.0 0.0 0.00 0.00 0.00 82 1019.9
20210923085150 52 5 0.0 0.0 0.00 0.00 0.00 82 1020.1
20210923084644 52 5 0.0 0.0 0.00 0.00 0.00 82 1020.1
20210923084138 52 5 0.0 0.0 0.00 0.00 0.00 83 1020.1
20210923083632 52 5 0.0 0.0 0.00 0.00 0.00 82 1020.2
20210923083126 52 5 0.0 0.0 0.00 0.00 0.00 83 1020.3
20210923082620 53 5 0.0 0.0 0.00 0.00 0.00 82 1020.2
20210923082114 53 5 0.0 0.0 0.00 0.00 0.00 81 1020.3
20210923081611 53 5 0.0 0.0 0.00 0.00 0.00 81 1020.4
20210923081113 53 5 0.0 0.0 0.00 0.00 0.00 81 1020.4
20210923080603 53 5 0.0 0.0 0.00 0.00 0.00 81 1020.4
20210923080112 53 5 0.0 0.0 0.00 0.00 0.00 81 1020.3
20210923075558 53 5 0.0 0.0 0.00 0.00 0.00 81 1020.4
20210923075059 53 5 0.0 0.0 0.00 0.00 0.00 81 1020.4
20210923074556 53 5 0.0 0.0 0.00 0.00 0.00 80 1020.4
20210923074054 53 5 0.0 0.0 0.00 0.00 0.00 79 1020.4
20210923073555 53 5 0.0 0.0 0.00 0.00 0.00 80 1020.4
20210923073055 53 5 0.0 0.0 0.00 0.00 0.00 79 1020.4
20210923072553 54 5 0.0 0.0 0.00 0.00 0.00 79 1020.4
20210923072050 54 5 0.0 0.0 0.00 0.00 0.00 79 1020.4
20210923071549 54 5 0.0 0.0 0.00 0.00 0.00 79 1020.4
20210923071049 55 5 0.0 0.0 0.00 0.00 0.00 79 1020.4
20210923070549 55 5 0.0 0.0 0.00 0.00 0.00 79 1020.5
20210923070059 55 5 0.0 0.0 0.00 0.00 0.00 78 1020.6
20210923065544 55 5 0.0 0.0 0.00 0.00 0.00 76 1020.5
20210923065045 55 5 0.0 0.0 0.00 0.00 0.00 76 1020.5
20210923064544 55 5 0.0 0.0 0.00 0.00 0.00 76 1020.4
20210923064040 55 5 0.0 0.0 0.00 0.00 0.00 76 1020.4
20210923063541 55 5 0.0 0.0 0.00 0.00 0.00 75 1020.4
20210923063040 55 5 0.0 0.0 0.00 0.00 0.00 75 1020.4
20210923062540 55 5 0.0 0.0 0.00 0.00 0.00 76 1020.3
20210923062041 55 5 0.0 0.0 0.00 0.00 0.00 75 1020.4